BRICSAT2 (NO-103) (44355 NORAD) Tracking and Keplerian Element Data

This shows tracking and keplerian element data for the satellite.

Feedback or suggestion? Click here.




ElementValue
Catalog44355
NameBRICSAT2 (NO-103)
Epoch Orbit4242
Epoch Day93.40846601
Epoch Year2020
RAAN154.5369
Inclination28.5317
Eccentricity0.0353716
Argument of Perigee227.7442
Mean Anonmoly129.2633
Mean Motion15.06029977
Decay Rate0.00025756
L11 44355U 19036S 20093.40846601 .00025756 00000-0 37359-3 0 9998
L22 44355 28.5317 154.5369 0353716 227.7442 129.2633 15.06029977 42429

Live tracking and technical data element details for BRICSAT2 (NO-103) (NORAD 44355). BRICSAT2 (NO-103) can be tracked NOW for your location showing map with azimuth and elevation plus other details from your city location.

Track the satellite on the map from your city or location and see movement details for azimuth, elevation, latitude, longitude, range, height, and movement on the map or in text.







IsCatalogInMostPopularTable: catalog: 44355, numindb: 58
Update: records affected: 1



GetName: 44355 BRICSAT2 (NO-103)

Hit Count: updated at: Thu, 09 Apr 2020 07:55:01 GMT